| time (UTC) | temp F | wind direction | speed knots | gust knots | rain 1hr in | rain 24hr in | rain mn in | humidity % | barometer mb |
| 20260506203529 | 52 | 306 | 0.0 | 0.0 | 0.00 | 0.00 | 0.00 | 77 | 1013.5 |
| 20260506203048 | 53 | 306 | 0.0 | 0.0 | 0.00 | 0.00 | 0.00 | 77 | 1013.5 |
| 20260506202529 | 53 | 306 | 0.0 | 0.0 | 0.00 | 0.00 | 0.00 | 75 | 1013.4 |
| 20260506202029 | 53 | 308 | 0.0 | 0.0 | 0.00 | 0.00 | 0.00 | 74 | 1013.4 |
| 20260506201529 | 53 | 308 | 0.0 | 0.0 | 0.00 | 0.00 | 0.00 | 74 | 1013.3 |
| 20260506201030 | 53 | 308 | 0.0 | 0.0 | 0.00 | 0.00 | 0.00 | 73 | 1013.4 |
| 20260506200529 | 53 | 308 | 0.0 | 0.0 | 0.00 | 0.00 | 0.00 | 73 | 1013.4 |
| 20260506200029 | 53 | 305 | 0.0 | 0.0 | 0.00 | 0.00 | 0.00 | 72 | 1013.3 |
| 20260506195529 | 53 | 308 | 0.0 | 0.0 | 0.00 | 0.00 | 0.00 | 72 | 1013.3 |
| 20260506195029 | 53 | 308 | 0.0 | 0.0 | 0.00 | 0.00 | 0.00 | 71 | 1013.3 |
| 20260506194523 | 53 | 308 | 0.0 | 0.0 | 0.00 | 0.00 | 0.00 | 71 | 1013.2 |
| 20260506194029 | 53 | 300 | 0.0 | 0.0 | 0.00 | 0.00 | 0.00 | 71 | 1013.2 |
| 20260506193529 | 53 | 300 | 0.0 | 1.7 | 0.00 | 0.00 | 0.00 | 71 | 1013.2 |
| 20260506193046 | 53 | 299 | 0.9 | 2.6 | 0.00 | 0.00 | 0.00 | 70 | 1013.1 |
| 20260506192529 | 53 | 228 | 0.0 | 0.9 | 0.00 | 0.00 | 0.00 | 71 | 1013.1 |
| 20260506192029 | 53 | 228 | 0.0 | 0.0 | 0.00 | 0.00 | 0.00 | 71 | 1013.0 |
| 20260506191529 | 53 | 228 | 0.0 | 0.0 | 0.00 | 0.00 | 0.00 | 70 | 1012.9 |
| 20260506191021 | 53 | 228 | 0.0 | 0.0 | 0.00 | 0.00 | 0.00 | 70 | 1012.8 |
| 20260506190526 | 53 | 230 | 0.0 | 0.9 | 0.00 | 0.00 | 0.00 | 70 | 1012.7 |
| 20260506190033 | 54 | 230 | 0.0 | 0.0 | 0.00 | 0.00 | 0.00 | 69 | 1012.7 |
| 20260506185530 | 54 | 230 | 0.9 | 1.7 | 0.00 | 0.00 | 0.00 | 69 | 1012.7 |
| 20260506185024 | 54 | 228 | 0.0 | 1.7 | 0.00 | 0.00 | 0.00 | 68 | 1012.6 |
| 20260506184529 | 54 | 230 | 0.0 | 1.7 | 0.00 | 0.00 | 0.00 | 68 | 1012.5 |
| 20260506184029 | 54 | 216 | 0.0 | 1.7 | 0.00 | 0.00 | 0.00 | 68 | 1012.5 |
| 20260506183529 | 54 | 353 | 0.9 | 2.6 | 0.00 | 0.00 | 0.00 | 68 | 1012.4 |
| 20260506183032 | 54 | 342 | 0.9 | 2.6 | 0.00 | 0.00 | 0.00 | 68 | 1012.4 |
| 20260506182542 | 54 | 278 | 0.9 | 1.7 | 0.00 | 0.00 | 0.00 | 67 | 1012.3 |
| 20260506182059 | 54 | 316 | 0.0 | 0.0 | 0.00 | 0.00 | 0.00 | 67 | 1012.3 |
| 20260506181544 | 54 | 305 | 0.0 | 1.7 | 0.00 | 0.00 | 0.00 | 67 | 1012.2 |
| 20260506181035 | 54 | 310 | 0.9 | 2.6 | 0.00 | 0.00 | 0.00 | 67 | 1012.2 |
| 20260506180529 | 54 | 322 | 0.9 | 2.6 | 0.00 | 0.00 | 0.00 | 66 | 1012.1 |
| 20260506180029 | 54 | 317 | 0.9 | 1.7 | 0.00 | 0.00 | 0.00 | 66 | 1012.0 |
| 20260506175530 | 54 | 316 | 0.9 | 1.7 | 0.00 | 0.00 | 0.00 | 66 | 1012.0 |
| 20260506175029 | 54 | 267 | 1.7 | 2.6 | 0.00 | 0.00 | 0.00 | 65 | 1011.9 |
| 20260506174548 | 54 | 53 | 1.7 | 2.6 | 0.00 | 0.00 | 0.00 | 66 | 1011.9 |
| 20260506174035 | 54 | 122 | 0.9 | 2.6 | 0.00 | 0.00 | 0.00 | 65 | 1011.8 |
| 20260506173523 | 54 | 141 | 0.0 | 1.7 | 0.00 | 0.00 | 0.00 | 66 | 1011.8 |
| 20260506173029 | 54 | 166 | 0.9 | 1.7 | 0.00 | 0.00 | 0.00 | 65 | 1011.8 |
| 20260506172529 | 54 | 340 | 1.7 | 4.3 | 0.00 | 0.00 | 0.00 | 64 | 1011.7 |
| 20260506172035 | 54 | 2 | 1.7 | 4.3 | 0.00 | 0.00 | 0.00 | 64 | 1011.7 |
| 20260506171525 | 54 | 353 | 2.6 | 4.3 | 0.00 | 0.00 | 0.00 | 65 | 1011.7 |
| 20260506171046 | 55 | 339 | 1.7 | 4.3 | 0.00 | 0.00 | 0.00 | 66 | 1011.7 |
| 20260506170533 | 55 | 332 | 1.7 | 4.3 | 0.00 | 0.00 | 0.00 | 66 | 1011.6 |
| 20260506170029 | 55 | 331 | 2.6 | 4.3 | 0.00 | 0.00 | 0.00 | 65 | 1011.6 |
| 20260506165529 | 55 | 349 | 2.6 | 5.2 | 0.00 | 0.00 | 0.00 | 65 | 1011.5 |
| 20260506165045 | 55 | 15 | 1.7 | 4.3 | 0.00 | 0.00 | 0.00 | 65 | 1011.5 |
| 20260506164529 | 55 | 352 | 2.6 | 4.3 | 0.00 | 0.00 | 0.00 | 65 | 1011.5 |
| 20260506164033 | 55 | 338 | 1.7 | 4.3 | 0.00 | 0.00 | 0.00 | 65 | 1011.5 |
| 20260506163535 | 55 | 327 | 1.7 | 5.2 | 0.00 | 0.00 | 0.00 | 65 | 1011.5 |
| 20260506163025 | 55 | 355 | 2.6 | 5.2 | 0.00 | 0.00 | 0.00 | 65 | 1011.4 |
| 20260506162559 | 55 | 345 | 2.6 | 5.2 | 0.00 | 0.00 | 0.00 | 65 | 1011.4 |
| 20260506162029 | 55 | 353 | 1.7 | 4.3 | 0.00 | 0.00 | 0.00 | 65 | 1011.4 |
| 20260506161530 | 55 | 3 | 2.6 | 4.3 | 0.00 | 0.00 | 0.00 | 65 | 1011.4 |
| 20260506161107 | 55 | 360 | 2.6 | 5.2 | 0.00 | 0.00 | 0.00 | 64 | 1011.4 |
| 20260506160529 | 55 | 355 | 2.6 | 4.3 | 0.00 | 0.00 | 0.00 | 64 | 1011.4 |
| 20260506160024 | 55 | 350 | 2.6 | 6.1 | 0.00 | 0.00 | 0.00 | 63 | 1011.4 |
| 20260506155529 | 56 | 353 | 2.6 | 4.3 | 0.00 | 0.00 | 0.00 | 62 | 1011.4 |
| 20260506155030 | 55 | 0 | 2.6 | 5.2 | 0.00 | 0.00 | 0.00 | 62 | 1011.4 |
| 20260506154534 | 56 | 353 | 3.5 | 7.8 | 0.00 | 0.00 | 0.00 | 61 | 1011.4 |
| 20260506154025 | 56 | 348 | 3.5 | 6.1 | 0.00 | 0.00 | 0.00 | 61 | 1011.4 |
| 20260506153529 | 56 | 358 | 2.6 | 4.3 | 0.00 | 0.00 | 0.00 | 62 | 1011.4 |
| 20260506153042 | 56 | 0 | 3.5 | 5.2 | 0.00 | 0.00 | 0.00 | 61 | 1011.4 |
| 20260506152529 | 56 | 346 | 3.5 | 7.0 | 0.00 | 0.00 | 0.00 | 61 | 1011.4 |
| 20260506152029 | 56 | 350 | 3.5 | 7.0 | 0.00 | 0.00 | 0.00 | 60 | 1011.4 |
| 20260506151529 | 57 | 346 | 3.5 | 8.7 | 0.00 | 0.00 | 0.00 | 59 | 1011.3 |
| 20260506151024 | 57 | 0 | 2.6 | 4.3 | 0.00 | 0.00 | 0.00 | 58 | 1011.3 |
| 20260506150533 | 57 | 357 | 2.6 | 5.2 | 0.00 | 0.00 | 0.00 | 57 | 1011.2 |
| 20260506150034 | 57 | 357 | 3.5 | 5.2 | 0.00 | 0.00 | 0.00 | 58 | 1011.2 |
| 20260506145529 | 57 | 339 | 2.6 | 4.3 | 0.00 | 0.00 | 0.00 | 57 | 1011.2 |
| 20260506145042 | 58 | 341 | 3.5 | 5.2 | 0.00 | 0.00 | 0.00 | 56 | 1011.1 |
| 20260506144529 | 58 | 343 | 3.5 | 8.7 | 0.00 | 0.00 | 0.00 | 56 | 1011.0 |
| 20260506144030 | 57 | 343 | 3.5 | 6.1 | 0.00 | 0.00 | 0.00 | 56 | 1011.1 |
| 20260506143529 | 57 | 325 | 3.5 | 5.2 | 0.00 | 0.00 | 0.00 | 56 | 1011.1 |
| 20260506143026 | 57 | 343 | 3.5 | 5.2 | 0.00 | 0.00 | 0.00 | 57 | 1011.1 |
| 20260506142607 | 57 | 345 | 3.5 | 9.6 | 0.00 | 0.00 | 0.00 | 57 | 1011.1 |
| 20260506142029 | 57 | 356 | 2.6 | 5.2 | 0.00 | 0.00 | 0.00 | 58 | 1011.1 |
| 20260506141529 | 57 | 344 | 2.6 | 4.3 | 0.00 | 0.00 | 0.00 | 59 | 1011.0 |
| 20260506141031 | 57 | 338 | 3.5 | 5.2 | 0.00 | 0.00 | 0.00 | 61 | 1011.0 |
| 20260506140529 | 57 | 360 | 1.7 | 4.3 | 0.00 | 0.00 | 0.00 | 62 | 1011.0 |
| 20260506140029 | 57 | 347 | 1.7 | 4.3 | 0.00 | 0.00 | 0.00 | 62 | 1011.0 |
| 20260506135521 | 57 | 359 | 2.6 | 5.2 | 0.00 | 0.00 | 0.00 | 62 | 1011.0 |
| 20260506135029 | 57 | 10 | 2.6 | 6.1 | 0.00 | 0.00 | 0.00 | 64 | 1011.0 |
| 20260506134529 | 57 | 339 | 2.6 | 4.3 | 0.00 | 0.00 | 0.00 | 64 | 1010.9 |
| 20260506134029 | 58 | 339 | 2.6 | 4.3 | 0.00 | 0.00 | 0.00 | 63 | 1010.9 |
| 20260506133533 | 57 | 348 | 2.6 | 5.2 | 0.00 | 0.00 | 0.00 | 64 | 1010.9 |
| 20260506133029 | 57 | 359 | 3.5 | 5.2 | 0.00 | 0.00 | 0.00 | 63 | 1010.9 |
| 20260506132530 | 58 | 339 | 3.5 | 5.2 | 0.00 | 0.00 | 0.00 | 62 | 1010.8 |
| 20260506132029 | 59 | 356 | 3.5 | 6.1 | 0.00 | 0.00 | 0.00 | 60 | 1010.8 |
| 20260506131522 | 59 | 344 | 2.6 | 4.3 | 0.00 | 0.00 | 0.00 | 61 | 1010.8 |
| 20260506131031 | 59 | 353 | 2.6 | 4.3 | 0.00 | 0.00 | 0.00 | 60 | 1010.8 |
| 20260506130529 | 58 | 349 | 3.5 | 5.2 | 0.00 | 0.00 | 0.00 | 62 | 1010.7 |
| 20260506130033 | 58 | 3 | 3.5 | 5.2 | 0.00 | 0.00 | 0.00 | 62 | 1010.7 |
| 20260506125532 | 59 | 348 | 3.5 | 6.1 | 0.00 | 0.00 | 0.00 | 62 | 1010.7 |
| 20260506125021 | 58 | 346 | 2.6 | 5.2 | 0.00 | 0.00 | 0.00 | 62 | 1010.6 |
| 20260506124538 | 58 | 344 | 3.5 | 6.1 | 0.00 | 0.00 | 0.00 | 63 | 1010.6 |
| 20260506124033 | 57 | 2 | 2.6 | 4.3 | 0.00 | 0.00 | 0.00 | 64 | 1010.6 |
| 20260506123527 | 57 | 359 | 3.5 | 7.0 | 0.00 | 0.00 | 0.00 | 65 | 1010.6 |
| 20260506123032 | 58 | 345 | 2.6 | 5.2 | 0.00 | 0.00 | 0.00 | 66 | 1010.5 |
| 20260506122533 | 58 | 4 | 3.5 | 5.2 | 0.00 | 0.00 | 0.00 | 64 | 1010.5 |
| 20260506122032 | 58 | 357 | 3.5 | 9.6 | 0.00 | 0.00 | 0.00 | 64 | 1010.5 |
| 20260506121529 | 58 | 358 | 3.5 | 5.2 | 0.00 | 0.00 | 0.00 | 64 | 1010.5 |
| 20260506121030 | 58 | 356 | 2.6 | 4.3 | 0.00 | 0.00 | 0.00 | 63 | 1010.4 |
| 20260506120533 | 57 | 359 | 2.6 | 5.2 | 0.00 | 0.00 | 0.00 | 64 | 1010.4 |
| 20260506120032 | 57 | 350 | 3.5 | 7.0 | 0.00 | 0.00 | 0.00 | 67 | 1010.4 |
| 20260506115533 | 58 | 356 | 4.3 | 7.8 | 0.00 | 0.00 | 0.00 | 65 | 1010.4 |
| 20260506115033 | 59 | 348 | 2.6 | 4.3 | 0.00 | 0.00 | 0.00 | 59 | 1010.3 |
| 20260506114533 | 59 | 336 | 2.6 | 6.1 | 0.00 | 0.00 | 0.00 | 59 | 1010.3 |
| 20260506114033 | 58 | 8 | 3.5 | 6.1 | 0.00 | 0.00 | 0.00 | 59 | 1010.3 |
| 20260506113532 | 58 | 347 | 3.5 | 6.1 | 0.00 | 0.00 | 0.00 | 59 | 1010.3 |
| 20260506113034 | 58 | 355 | 2.6 | 5.2 | 0.00 | 0.00 | 0.00 | 61 | 1010.3 |
| 20260506112535 | 58 | 350 | 2.6 | 6.1 | 0.00 | 0.00 | 0.00 | 61 | 1010.3 |
| 20260506112032 | 58 | 354 | 2.6 | 5.2 | 0.00 | 0.00 | 0.00 | 61 | 1010.3 |
| 20260506111527 | 59 | 332 | 3.5 | 9.6 | 0.00 | 0.00 | 0.00 | 58 | 1010.3 |
| 20260506111038 | 60 | 351 | 3.5 | 7.0 | 0.00 | 0.00 | 0.00 | 56 | 1010.3 |
| 20260506110529 | 60 | 340 | 2.6 | 5.2 | 0.00 | 0.00 | 0.00 | 58 | 1010.2 |
| 20260506110034 | 60 | 342 | 3.5 | 6.1 | 0.00 | 0.00 | 0.00 | 59 | 1010.2 |
| 20260506105525 | 60 | 14 | 1.7 | 4.3 | 0.00 | 0.00 | 0.00 | 60 | 1010.2 |
| 20260506105032 | 59 | 353 | 2.6 | 5.2 | 0.00 | 0.00 | 0.00 | 61 | 1010.3 |
| 20260506104533 | 58 | 355 | 2.6 | 6.1 | 0.00 | 0.00 | 0.00 | 63 | 1010.3 |
| 20260506104024 | 58 | 343 | 3.5 | 6.1 | 0.00 | 0.00 | 0.00 | 63 | 1010.3 |
| 20260506103532 | 59 | 338 | 3.5 | 6.1 | 0.00 | 0.00 | 0.00 | 62 | 1010.3 |
| 20260506103030 | 58 | 357 | 2.6 | 6.1 | 0.00 | 0.00 | 0.00 | 63 | 1010.3 |
| 20260506102545 | 58 | 360 | 3.5 | 5.2 | 0.00 | 0.00 | 0.00 | 64 | 1010.2 |
| 20260506102034 | 57 | 8 | 2.6 | 4.3 | 0.00 | 0.00 | 0.00 | 65 | 1010.2 |
| 20260506101532 | 57 | 358 | 2.6 | 5.2 | 0.00 | 0.00 | 0.00 | 67 | 1010.2 |
| 20260506101030 | 57 | 344 | 3.5 | 6.1 | 0.00 | 0.00 | 0.00 | 67 | 1010.2 |
| 20260506100532 | 57 | 348 | 2.6 | 6.1 | 0.00 | 0.00 | 0.00 | 67 | 1010.1 |
| 20260506100024 | 57 | 2 | 2.6 | 8.7 | 0.00 | 0.00 | 0.00 | 71 | 1010.1 |
| 20260506095532 | 57 | 346 | 2.6 | 5.2 | 0.00 | 0.00 | 0.00 | 73 | 1010.1 |
| 20260506095037 | 57 | 3 | 2.6 | 5.2 | 0.00 | 0.00 | 0.00 | 73 | 1010.1 |
| 20260506094533 | 56 | 341 | 2.6 | 4.3 | 0.00 | 0.00 | 0.00 | 74 | 1010.0 |
| 20260506094024 | 56 | 344 | 2.6 | 5.2 | 0.00 | 0.00 | 0.00 | 74 | 1010.1 |
| 20260506093530 | 56 | 349 | 2.6 | 4.3 | 0.00 | 0.00 | 0.00 | 75 | 1010.1 |
| 20260506093033 | 56 | 332 | 2.6 | 4.3 | 0.00 | 0.00 | 0.00 | 76 | 1010.1 |
| 20260506092533 | 56 | 352 | 2.6 | 5.2 | 0.00 | 0.00 | 0.00 | 76 | 1010.0 |
| 20260506092025 | 56 | 353 | 3.5 | 6.1 | 0.00 | 0.00 | 0.00 | 74 | 1010.0 |
| 20260506091534 | 56 | 352 | 4.3 | 8.7 | 0.00 | 0.00 | 0.00 | 74 | 1010.0 |
| 20260506091032 | 56 | 353 | 3.5 | 6.1 | 0.00 | 0.00 | 0.00 | 74 | 1010.0 |
| 20260506090530 | 56 | 339 | 3.5 | 5.2 | 0.00 | 0.00 | 0.00 | 73 | 1010.0 |
| 20260506090034 | 56 | 355 | 2.6 | 4.3 | 0.00 | 0.00 | 0.00 | 75 | 1010.0 |
| 20260506085532 | 56 | 348 | 3.5 | 4.3 | 0.00 | 0.00 | 0.00 | 75 | 1009.9 |
| 20260506085058 | 55 | 357 | 2.6 | 5.2 | 0.00 | 0.00 | 0.00 | 80 | 1009.9 |
| 20260506084532 | 55 | 352 | 2.6 | 5.2 | 0.00 | 0.00 | 0.00 | 81 | 1009.9 |
| 20260506084026 | 55 | 358 | 2.6 | 5.2 | 0.00 | 0.00 | 0.00 | 82 | 1009.9 |
| 20260506083533 | 54 | 339 | 1.7 | 6.1 | 0.00 | 0.00 | 0.00 | 83 | 1009.9 |
| 20260506083032 | 54 | 357 | 3.5 | 7.0 | 0.00 | 0.00 | 0.00 | 83 | 1009.9 |
| 20260506082532 | 54 | 354 | 2.6 | 6.1 | 0.00 | 0.00 | 0.00 | 83 | 1009.9 |
| 20260506082036 | 54 | 343 | 2.6 | 5.2 | 0.00 | 0.00 | 0.00 | 84 | 1009.8 |
| 20260506081529 | 54 | 357 | 2.6 | 4.3 | 0.00 | 0.00 | 0.00 | 84 | 1009.8 |
| 20260506081032 | 54 | 1 | 3.5 | 6.1 | 0.00 | 0.00 | 0.00 | 85 | 1009.9 |
| 20260506080532 | 53 | 349 | 1.7 | 4.3 | 0.00 | 0.00 | 0.00 | 86 | 1009.8 |
| 20260506073032 | 52 | 355 | 3.5 | 6.1 | 0.00 | 0.00 | 0.00 | 88 | 1009.7 |
| 20260506072521 | 52 | 342 | 3.5 | 7.8 | 0.00 | 0.00 | 0.00 | 88 | 1009.7 |
| 20260506072032 | 52 | 1 | 2.6 | 5.2 | 0.00 | 0.00 | 0.00 | 88 | 1009.7 |
| 20260506071532 | 52 | 353 | 1.7 | 5.2 | 0.00 | 0.00 | 0.00 | 88 | 1009.8 |
| 20260506071044 | 52 | 343 | 1.7 | 5.2 | 0.00 | 0.00 | 0.00 | 88 | 1009.8 |
| 20260506070532 | 52 | 352 | 2.6 | 4.3 | 0.00 | 0.00 | 0.00 | 89 | 1009.7 |
| 20260506062032 | 51 | 337 | 1.7 | 4.3 | 0.00 | 0.00 | 0.00 | 93 | 1009.6 |
| 20260506061532 | 51 | 330 | 0.9 | 3.5 | 0.00 | 0.00 | 0.00 | 93 | 1009.5 |
| 20260506061025 | 50 | 2 | 0.9 | 3.5 | 0.00 | 0.00 | 0.00 | 94 | 1009.5 |
| 20260506060529 | 50 | 338 | 0.9 | 3.5 | 0.00 | 0.00 | 0.00 | 94 | 1009.5 |
| 20260506051033 | 49 | 348 | 1.7 | 4.3 | 0.00 | 0.00 | 0.00 | 95 | 1009.6 |
| 20260506050532 | 49 | 360 | 0.9 | 4.3 | 0.00 | 0.00 | 0.00 | 96 | 1009.5 |
| 20260506045037 | 49 | 354 | 1.7 | 4.3 | 0.00 | 0.00 | 0.00 | 96 | 1009.5 |
| 20260506044544 | 49 | 356 | 1.7 | 4.3 | 0.00 | 0.00 | 0.00 | 96 | 1009.5 |
| 20260506044035 | 49 | 360 | 2.6 | 4.3 | 0.00 | 0.00 | 0.00 | 96 | 1009.5 |
| 20260506043525 | 49 | 352 | 1.7 | 4.3 | 0.00 | 0.00 | 0.00 | 96 | 1009.5 |
| 20260506043032 | 48 | 336 | 2.6 | 4.3 | 0.00 | 0.00 | 0.00 | 96 | 1009.5 |
| 20260506042557 | 48 | 352 | 1.7 | 4.3 | 0.00 | 0.00 | 0.00 | 96 | 1009.5 |
| 20260506042032 | 48 | 360 | 2.6 | 5.2 | 0.00 | 0.00 | 0.00 | 96 | 1009.5 |
| 20260506041532 | 48 | 0 | 1.7 | 4.3 | 0.00 | 0.00 | 0.00 | 96 | 1009.5 |
| 20260506041021 | 48 | 358 | 2.6 | 5.2 | 0.00 | 0.00 | 0.00 | 97 | 1009.5 |
| 20260506040530 | 48 | 352 | 1.7 | 4.3 | 0.00 | 0.00 | 0.00 | 96 | 1009.5 |
| 20260506040032 | 49 | 2 | 1.7 | 4.3 | 0.00 | 0.00 | 0.00 | 96 | 1009.5 |
| 20260506035531 | 49 | 349 | 1.7 | 4.3 | 0.00 | 0.00 | 0.00 | 96 | 1009.5 |
| 20260506035032 | 49 | 5 | 1.7 | 4.3 | 0.00 | 0.00 | 0.00 | 96 | 1009.6 |
| 20260506034529 | 49 | 8 | 0.9 | 2.6 | 0.00 | 0.00 | 0.00 | 96 | 1009.7 |
| 20260506034044 | 49 | 4 | 1.7 | 3.5 | 0.00 | 0.00 | 0.00 | 95 | 1009.7 |
| 20260506033534 | 49 | 10 | 2.6 | 6.1 | 0.00 | 0.00 | 0.00 | 95 | 1009.7 |
| 20260506033023 | 49 | 356 | 1.7 | 3.5 | 0.00 | 0.00 | 0.00 | 95 | 1009.8 |
| 20260506032542 | 49 | 345 | 0.9 | 2.6 | 0.00 | 0.00 | 0.00 | 94 | 1009.7 |
| 20260506032024 | 49 | 15 | 1.7 | 4.3 | 0.00 | 0.00 | 0.00 | 94 | 1009.8 |
| 20260506031532 | 49 | 357 | 1.7 | 4.3 | 0.00 | 0.00 | 0.00 | 92 | 1009.8 |
| 20260506031032 | 49 | 11 | 1.7 | 3.5 | 0.00 | 0.00 | 0.00 | 91 | 1009.7 |
| 20260506030544 | 49 | 11 | 0.9 | 3.5 | 0.00 | 0.00 | 0.00 | 90 | 1009.7 |
| 20260506030025 | 50 | 344 | 0.9 | 3.5 | 0.00 | 0.00 | 0.00 | 90 | 1009.8 |
| 20260506025530 | 50 | 337 | 1.7 | 3.5 | 0.00 | 0.00 | 0.00 | 89 | 1009.8 |
| 20260506025044 | 50 | 0 | 0.9 | 3.5 | 0.00 | 0.00 | 0.00 | 89 | 1009.8 |
| 20260506024532 | 50 | 335 | 0.9 | 2.6 | 0.00 | 0.00 | 0.00 | 89 | 1009.8 |
| 20260506024032 | 50 | 335 | 0.9 | 3.5 | 0.00 | 0.00 | 0.00 | 88 | 1009.9 |
| 20260506023532 | 50 | 348 | 1.7 | 2.6 | 0.00 | 0.00 | 0.00 | 88 | 1009.9 |
| 20260506023029 | 50 | 328 | 1.7 | 4.3 | 0.00 | 0.00 | 0.00 | 88 | 1009.9 |
| 20260506022556 | 50 | 351 | 1.7 | 4.3 | 0.00 | 0.00 | 0.00 | 88 | 1010.0 |
| 20260506022033 | 50 | 341 | 0.9 | 2.6 | 0.00 | 0.00 | 0.00 | 88 | 1010.0 |
| 20260506021532 | 50 | 342 | 0.0 | 3.5 | 0.00 | 0.00 | 0.00 | 88 | 1009.9 |
| 20260506021026 | 50 | 351 | 1.7 | 3.5 | 0.00 | 0.00 | 0.00 | 88 | 1009.9 |
| 20260506020532 | 50 | 338 | 0.9 | 3.5 | 0.00 | 0.00 | 0.00 | 88 | 1009.9 |
| 20260506020036 | 50 | 7 | 0.9 | 3.5 | 0.00 | 0.00 | 0.00 | 88 | 1009.9 |
| 20260506015532 | 50 | 360 | 0.9 | 2.6 | 0.00 | 0.00 | 0.00 | 87 | 1010.0 |
| 20260506015032 | 50 | 355 | 1.7 | 3.5 | 0.00 | 0.00 | 0.00 | 87 | 1010.0 |
| 20260506014522 | 50 | 356 | 2.6 | 5.2 | 0.00 | 0.00 | 0.00 | 87 | 1010.0 |
| 20260506014032 | 50 | 353 | 2.6 | 4.3 | 0.00 | 0.00 | 0.00 | 87 | 1010.0 |
| 20260506013520 | 50 | 2 | 2.6 | 5.2 | 0.00 | 0.00 | 0.00 | 87 | 1010.0 |
| 20260506013032 | 50 | 357 | 2.6 | 4.3 | 0.00 | 0.00 | 0.00 | 87 | 1010.0 |
| 20260506012532 | 50 | 10 | 1.7 | 4.3 | 0.00 | 0.00 | 0.00 | 86 | 1010.0 |
| 20260506012032 | 50 | 353 | 2.6 | 4.3 | 0.00 | 0.00 | 0.00 | 86 | 1010.0 |
| 20260506011532 | 50 | 358 | 1.7 | 5.2 | 0.00 | 0.00 | 0.00 | 86 | 1010.0 |
| 20260506011030 | 50 | 347 | 2.6 | 3.5 | 0.00 | 0.00 | 0.00 | 86 | 1010.0 |
| 20260506010531 | 50 | 351 | 1.7 | 3.5 | 0.00 | 0.00 | 0.00 | 86 | 1010.1 |
| 20260506010030 | 50 | 6 | 1.7 | 4.3 | 0.00 | 0.00 | 0.00 | 86 | 1010.1 |
| 20260506005522 | 50 | 358 | 2.6 | 4.3 | 0.00 | 0.00 | 0.00 | 85 | 1010.2 |
| 20260506005032 | 50 | 348 | 2.6 | 6.1 | 0.00 | 0.00 | 0.00 | 85 | 1010.2 |
| 20260506004532 | 50 | 14 | 2.6 | 5.2 | 0.00 | 0.00 | 0.00 | 85 | 1010.3 |
| 20260506004032 | 50 | 356 | 2.6 | 4.3 | 0.00 | 0.00 | 0.00 | 84 | 1010.3 |
| 20260506003532 | 50 | 347 | 2.6 | 4.3 | 0.00 | 0.00 | 0.00 | 84 | 1010.4 |
| 20260506003044 | 50 | 334 | 1.7 | 3.5 | 0.00 | 0.00 | 0.00 | 84 | 1010.5 |
| 20260506002544 | 50 | 350 | 2.6 | 4.3 | 0.00 | 0.00 | 0.00 | 84 | 1010.5 |
| 20260506002032 | 50 | 350 | 1.7 | 4.3 | 0.00 | 0.00 | 0.00 | 83 | 1010.5 |
| 20260506001524 | 50 | 360 | 2.6 | 4.3 | 0.00 | 0.00 | 0.00 | 83 | 1010.6 |
| 20260506001022 | 50 | 346 | 2.6 | 5.2 | 0.00 | 0.00 | 0.00 | 83 | 1010.6 |
| 20260506000530 | 50 | 357 | 1.7 | 5.2 | 0.00 | 0.00 | 0.00 | 83 | 1010.6 |
| 20260506000032 | 51 | 357 | 2.6 | 5.2 | 0.00 | 0.00 | 0.00 | 82 | 1010.6 |
| 20260505235532 | 51 | 12 | 1.7 | 4.3 | 0.00 | 0.00 | 0.00 | 82 | 1010.7 |
| 20260505235025 | 51 | 351 | 2.6 | 4.3 | 0.00 | 0.00 | 0.00 | 82 | 1010.7 |
| 20260505234530 | 51 | 347 | 1.7 | 4.3 | 0.00 | 0.00 | 0.00 | 82 | 1010.7 |
| 20260505234032 | 51 | 2 | 2.6 | 4.3 | 0.00 | 0.00 | 0.00 | 81 | 1010.7 |
| 20260505233525 | 51 | 12 | 2.6 | 5.2 | 0.00 | 0.01 | 0.00 | 81 | 1010.7 |
| 20260505233033 | 51 | 359 | 1.7 | 3.5 | 0.00 | 0.01 | 0.00 | 81 | 1010.7 |
| 20260505232532 | 51 | 353 | 1.7 | 5.2 | 0.00 | 0.01 | 0.00 | 81 | 1010.7 |
| 20260505232044 | 51 | 358 | 2.6 | 4.3 | 0.00 | 0.01 | 0.00 | 81 | 1010.8 |
| 20260505231532 | 51 | 358 | 2.6 | 6.1 | 0.00 | 0.03 | 0.00 | 81 | 1010.8 |
| 20260505231032 | 51 | 337 | 1.7 | 4.3 | 0.00 | 0.05 | 0.00 | 82 | 1010.9 |
| 20260505230532 | 51 | 15 | 1.7 | 3.5 | 0.00 | 0.07 | 0.00 | 82 | 1010.9 |
| 20260505230032 | 51 | 360 | 2.6 | 4.3 | 0.00 | 0.16 | 0.00 | 82 | 1010.9 |
| 20260505225532 | 50 | 355 | 2.6 | 5.2 | 0.00 | 0.20 | 0.00 | 82 | 1010.9 |
| 20260505225030 | 50 | 353 | 2.6 | 4.3 | 0.00 | 0.20 | 0.00 | 82 | 1010.9 |
| 20260505224532 | 50 | 356 | 1.7 | 3.5 | 0.00 | 0.21 | 0.00 | 83 | 1010.9 |
| 20260505224032 | 50 | 347 | 2.6 | 4.3 | 0.00 | 0.23 | 0.00 | 83 | 1011.0 |
| 20260505223524 | 50 | 356 | 1.7 | 4.3 | 0.00 | 0.25 | 0.00 | 83 | 1011.0 |
| 20260505223030 | 51 | 345 | 1.7 | 3.5 | 0.00 | 0.26 | 0.00 | 83 | 1011.1 |
| 20260505222532 | 51 | 11 | 2.6 | 5.2 | 0.00 | 0.27 | 0.00 | 83 | 1011.1 |
| 20260505222021 | 51 | 12 | 1.7 | 3.5 | 0.00 | 0.28 | 0.00 | 82 | 1011.1 |
| 20260505221532 | 51 | 350 | 2.6 | 5.2 | 0.00 | 0.31 | 0.00 | 82 | 1011.1 |
| 20260505221040 | 51 | 354 | 2.6 | 4.3 | 0.00 | 0.35 | 0.00 | 82 | 1011.1 |
| 20260505220544 | 51 | 350 | 2.6 | 4.3 | 0.00 | 0.39 | 0.00 | 82 | 1011.2 |
| 20260505220034 | 51 | 348 | 2.6 | 5.2 | 0.00 | 0.40 | 0.00 | 82 | 1011.2 |
| 20260505215532 | 51 | 2 | 1.7 | 4.3 | 0.00 | 0.40 | 0.40 | 82 | 1011.2 |
| 20260505215032 | 51 | 0 | 2.6 | 5.2 | 0.00 | 0.41 | 0.40 | 82 | 1011.2 |
| 20260505214530 | 51 | 1 | 1.7 | 4.3 | 0.00 | 0.43 | 0.40 | 82 | 1011.2 |
| 20260505214023 | 51 | 342 | 3.5 | 5.2 | 0.00 | 0.43 | 0.40 | 81 | 1011.2 |
| 20260505213532 | 51 | 343 | 2.6 | 4.3 | 0.00 | 0.43 | 0.40 | 82 | 1011.2 |
| 20260505213032 | 51 | 351 | 2.6 | 8.7 | 0.00 | 0.43 | 0.40 | 82 | 1011.2 |
| 20260505212530 | 51 | 4 | 2.6 | 4.3 | 0.00 | 0.43 | 0.40 | 82 | 1011.3 |
| 20260505212032 | 51 | 11 | 3.5 | 5.2 | 0.00 | 0.43 | 0.40 | 82 | 1011.3 |
| 20260505211532 | 51 | 358 | 2.6 | 4.3 | 0.00 | 0.43 | 0.40 | 82 | 1011.3 |
| 20260505211044 | 51 | 12 | 2.6 | 5.2 | 0.00 | 0.43 | 0.40 | 82 | 1011.3 |
| 20260505210532 | 51 | 345 | 2.6 | 5.2 | 0.00 | 0.43 | 0.40 | 82 | 1011.3 |
| 20260505210024 | 52 | 357 | 2.6 | 5.2 | 0.00 | 0.43 | 0.40 | 82 | 1011.3 |
| 20260505205532 | 52 | 0 | 3.5 | 5.2 | 0.00 | 0.43 | 0.40 | 82 | 1011.3 |
| 20260505205030 | 52 | 347 | 2.6 | 4.3 | 0.00 | 0.43 | 0.40 | 82 | 1011.3 |
| 20260505204542 | 52 | 357 | 3.5 | 5.2 | 0.00 | 0.43 | 0.40 | 82 | 1011.4 |
| 20260505204024 | 52 | 1 | 3.5 | 6.1 | 0.00 | 0.43 | 0.40 | 82 | 1011.4 |